GW4081 Weather Reports


Display with metric or nautical units.
time (UTC)temp
F
wind
direction
speed
MPH
gust
MPH
rain 1hr
in
rain 24hr
in
rain mn
in
humidity
%
barometer
mb
20260901032104 90 159 10.0 17.0 0.00 0.00 0.00 41 1015.4
20260901031605 91 156 11.0 17.0 0.00 0.00 0.00 40 1015.4
20260901030604 91 165 8.0 14.0 0.00 0.00 0.00 40 1015.3
20260901025604 91 161 8.0 16.0 0.00 0.00 0.00 40 1015.1
20260901024605 91 145 9.0 13.0 0.00 0.00 0.00 39 1015.0
20260901023604 91 157 6.0 12.0 0.00 0.00 0.00 39 1014.9
20260901023104 92 153 8.0 12.0 0.00 0.00 0.00 38 1014.8
20260901022104 92 162 7.0 12.0 0.00 0.00 0.00 38 1014.6
20260901021605 92 147 7.0 12.0 0.00 0.00 0.00 38 1014.6
20260901021104 92 152 8.0 12.0 0.00 0.00 0.00 37 1014.5
20260901020604 92 145 8.0 12.0 0.00 0.00 0.00 37 1014.4
20260901020104 92 148 7.0 13.0 0.00 0.00 0.00 37 1014.3
20260901015605 93 146 7.0 13.0 0.00 0.00 0.00 37 1014.3
20260901015104 93 159 8.0 12.0 0.00 0.00 0.00 37 1014.2
20260901014104 93 144 9.0 14.0 0.00 0.00 0.00 36 1014.1
20260901013605 93 162 8.0 13.0 0.00 0.00 0.00 36 1014.1
20260901013104 93 155 8.0 12.0 0.00 0.00 0.00 35 1014.0
20260901012605 94 149 7.0 12.0 0.00 0.00 0.00 35 1013.9
20260901012105 94 160 7.0 13.0 0.00 0.00 0.00 35 1013.9
20260901011604 94 143 9.0 13.0 0.00 0.00 0.00 35 1013.9
20260901011104 94 145 7.0 13.0 0.00 0.00 0.00 35 1013.8
20260901010604 95 150 9.0 13.0 0.00 0.00 0.00 34 1013.8
20260901010105 95 156 7.0 13.0 0.00 0.00 0.00 34 1013.7
20260901005605 95 152 8.0 13.0 0.00 0.00 0.00 34 1013.7
20260901005104 95 153 9.0 13.0 0.00 0.00 0.00 34 1013.6
20260901004105 96 155 10.0 13.0 0.00 0.00 0.00 34 1013.6
20260901003605 96 153 9.0 13.0 0.00 0.00 0.00 34 1013.6
20260901003105 97 168 5.0 13.0 0.00 0.00 0.00 34 1013.5
20260901002604 97 164 7.0 15.0 0.00 0.00 0.00 34 1013.5
20260901002104 97 147 8.0 15.0 0.00 0.00 0.00 34 1013.5
20260901001604 97 154 9.0 16.0 0.00 0.00 0.00 34 1013.5
20260901001104 97 152 9.0 16.0 0.00 0.00 0.00 33 1013.4
20260901000105 98 151 12.0 16.0 0.00 0.00 0.00 33 1013.5
20260831235104 98 116 10.0 17.0 0.00 0.00 0.00 33 1013.5
20260831234104 98 156 9.0 15.0 0.00 0.00 0.00 33 1013.5
20260831233604 99 155 10.0 17.0 0.00 0.00 0.00 33 1013.5
20260831233105 99 151 10.0 20.0 0.00 0.00 0.00 32 1013.5
20260831232104 99 148 10.0 17.0 0.00 0.00 0.00 33 1013.5
20260831231604 99 151 12.0 17.0 0.00 0.00 0.00 33 1013.5
20260831231104 99 154 10.0 17.0 0.00 0.00 0.00 33 1013.4
20260831230104 99 164 12.0 16.0 0.00 0.00 0.00 33 1013.5
20260831225105 99 163 10.0 20.0 0.00 0.00 0.00 34 1013.5
20260831224604 100 172 12.0 20.0 0.00 0.00 0.00 33 1013.5
20260831224105 100 179 10.0 20.0 0.00 0.00 0.00 33 1013.5
20260831223605 100 133 12.0 20.0 0.00 0.00 0.00 33 1013.5
20260831223104 100 161 10.0 15.0 0.00 0.00 0.00 33 1013.5
20260831222605 100 160 9.0 18.0 0.00 0.00 0.00 33 1013.6
20260831222104 100 178 12.0 18.0 0.00 0.00 0.00 33 1013.5
20260831221104 101 183 8.0 13.0 0.00 0.00 0.00 33 1013.6
20260831220604 101 132 9.0 17.0 0.00 0.00 0.00 33 1013.5
20260831220104 101 172 7.0 17.0 0.00 0.00 0.00 32 1013.6
20260831215104 101 143 10.0 17.0 0.00 0.00 0.00 33 1013.7
20260831214604 101 148 9.0 20.0 0.00 0.00 0.00 33 1013.7
20260831214104 101 166 11.0 20.0 0.00 0.00 0.00 33 1013.7
20260831213605 101 146 12.0 20.0 0.00 0.00 0.00 32 1013.7
20260831213104 102 138 9.0 20.0 0.00 0.00 0.00 32 1013.7
20260831212605 102 140 14.0 20.0 0.00 0.00 0.00 32 1013.9
20260831211604 101 139 12.0 21.0 0.00 0.00 0.00 33 1013.9
20260831211104 102 152 13.0 21.0 0.00 0.00 0.00 32 1014.0
20260831210604 101 160 8.0 14.0 0.00 0.00 0.00 33 1014.0
20260831210104 101 148 10.0 20.0 0.00 0.00 0.00 33 1014.1
20260831204605 102 191 9.0 16.0 0.00 0.00 0.00 33 1014.2
20260831204104 102 198 8.0 17.0 0.00 0.00 0.00 33 1014.3
20260831203605 102 167 11.0 17.0 0.00 0.00 0.00 33 1014.3
20260831203104 102 161 8.0 17.0 0.00 0.00 0.00 34 1014.3
20260831202104 102 144 12.0 20.0 0.00 0.00 0.00 33 1014.4
20260831201604 101 145 14.0 20.0 0.00 0.00 0.00 34 1014.5
20260831200105 100 174 8.0 14.0 0.00 0.00 0.00 35 1014.7
20260831195604 100 169 7.0 20.0 0.00 0.00 0.00 35 1014.8
20260831195104 101 168 12.0 20.0 0.00 0.00 0.00 35 1014.8
20260831194605 101 169 13.0 20.0 0.00 0.00 0.00 35 1014.8
20260831194104 101 172 3.0 18.0 0.00 0.00 0.00 34 1014.9
20260831193604 101 159 9.0 17.0 0.00 0.00 0.00 34 1015.0
20260831193104 101 185 9.0 17.0 0.00 0.00 0.00 32 1015.0
20260831192104 101 169 10.0 18.0 0.00 0.00 0.00 34 1015.1
20260831191604 101 168 13.0 18.0 0.00 0.00 0.00 35 1015.1
20260831191104 100 150 9.0 18.0 0.00 0.00 0.00 36 1015.2
20260831190604 100 175 5.0 18.0 0.00 0.00 0.00 35 1015.3
20260831190104 100 183 12.0 18.0 0.00 0.00 0.00 36 1015.3
20260831185604 100 123 8.0 12.0 0.00 0.00 0.00 35 1015.3
20260831185104 100 172 5.0 18.0 0.00 0.00 0.00 34 1015.4
20260831184605 100 179 9.0 18.0 0.00 0.00 0.00 36 1015.5
20260831184104 99 168 7.0 18.0 0.00 0.00 0.00 36 1015.5
20260831183605 100 140 9.0 20.0 0.00 0.00 0.00 34 1015.6
20260831183104 100 164 13.0 20.0 0.00 0.00 0.00 36 1015.6
20260831182104 99 165 5.0 12.0 0.00 0.00 0.00 36 1015.7
20260831181604 99 146 5.0 14.0 0.00 0.00 0.00 35 1015.7
20260831181104 100 156 10.0 16.0 0.00 0.00 0.00 34 1015.8
20260831180104 99 182 12.0 17.0 0.00 0.00 0.00 36 1015.9
20260831175104 99 186 12.0 18.0 0.00 0.00 0.00 36 1016.0
20260831174104 98 181 9.0 16.0 0.00 0.00 0.00 38 1016.0
20260831173604 98 194 9.0 16.0 0.00 0.00 0.00 39 1016.1
20260831173104 98 194 12.0 16.0 0.00 0.00 0.00 39 1016.2
20260831172604 98 215 9.0 20.0 0.00 0.00 0.00 40 1016.2
20260831171604 97 182 12.0 20.0 0.00 0.00 0.00 42 1016.4
20260831165604 97 177 10.0 18.0 0.00 0.00 0.00 44 1016.6
20260831165104 96 174 12.0 18.0 0.00 0.00 0.00 44 1016.6
20260831164104 96 195 13.0 18.0 0.00 0.00 0.00 45 1016.6
20260831163604 96 203 12.0 17.0 0.00 0.00 0.00 45 1016.6
20260831163104 95 196 10.0 20.0 0.00 0.00 0.00 46 1016.7
20260831161604 95 184 13.0 17.0 0.00 0.00 0.00 46 1016.7
20260831160604 94 170 10.0 18.0 0.00 0.00 0.00 48 1016.7
20260831160104 94 189 11.0 18.0 0.00 0.00 0.00 49 1016.7
20260831155604 94 199 11.0 17.0 0.00 0.00 0.00 49 1016.7
20260831155105 94 188 10.0 18.0 0.00 0.00 0.00 48 1016.7
20260831154604 93 214 12.0 20.0 0.00 0.00 0.00 49 1016.7
20260831154104 93 194 13.0 20.0 0.00 0.00 0.00 49 1016.7
20260831153604 92 184 12.0 18.0 0.00 0.00 0.00 50 1016.7
20260831153104 92 180 12.0 18.0 0.00 0.00 0.00 50 1016.7
20260831152604 92 195 9.0 16.0 0.00 0.00 0.00 52 1016.7
20260831152104 91 193 10.0 16.0 0.00 0.00 0.00 52 1016.7
20260831150605 90 196 11.0 16.0 0.00 0.00 0.00 52 1016.7
20260831150104 90 213 11.0 16.0 0.00 0.00 0.00 53 1016.8
20260831145604 90 183 12.0 18.0 0.00 0.00 0.00 53 1016.8
20260831144605 89 184 11.0 17.0 0.00 0.00 0.00 54 1016.8
20260831144104 89 196 11.0 17.0 0.00 0.00 0.00 54 1016.8
20260831143604 89 186 12.0 16.0 0.00 0.00 0.00 54 1016.8
20260831143104 88 202 9.0 16.0 0.00 0.00 0.00 55 1016.8
20260831142604 88 201 11.0 16.0 0.00 0.00 0.00 55 1016.7
20260831141104 87 193 10.0 17.0 0.00 0.00 0.00 56 1016.8
20260831140104 85 192 10.0 15.0 0.00 0.00 0.00 58 1016.9
20260831135604 85 196 12.0 15.0 0.00 0.00 0.00 57 1016.9
20260831135104 84 181 9.0 15.0 0.00 0.00 0.00 58 1016.9
20260831134104 83 179 7.0 12.0 0.00 0.00 0.00 59 1016.9
20260831133604 83 174 9.0 12.0 0.00 0.00 0.00 59 1016.8
20260831133103 83 170 8.0 12.0 0.00 0.00 0.00 60 1016.8
20260831132104 82 180 9.0 12.0 0.00 0.00 0.00 60 1016.7
20260831131604 82 182 7.0 12.0 0.00 0.00 0.00 60 1016.6
20260831131104 81 183 7.0 12.0 0.00 0.00 0.00 60 1016.6
20260831130605 81 192 7.0 12.0 0.00 0.00 0.00 60 1016.5
20260831130104 81 180 8.0 12.0 0.00 0.00 0.00 60 1016.5
20260831125604 80 185 8.0 13.0 0.00 0.00 0.00 60 1016.4
20260831125103 80 180 7.0 13.0 0.00 0.00 0.00 60 1016.3
20260831124604 80 184 7.0 13.0 0.00 0.00 0.00 60 1016.3
20260831124104 80 178 6.0 12.0 0.00 0.00 0.00 61 1016.2
20260831123604 79 172 7.0 12.0 0.00 0.00 0.00 61 1016.1
20260831123104 79 165 7.0 12.0 0.00 0.00 0.00 61 1016.0
20260831122604 79 181 7.0 12.0 0.00 0.00 0.00 61 1015.9
20260831122105 79 177 7.0 10.0 0.00 0.00 0.00 61 1015.9
20260831121604 78 170 6.0 10.0 0.00 0.00 0.00 61 1015.9
20260831120604 78 174 6.0 10.0 0.00 0.00 0.00 61 1015.8
20260831120104 78 186 7.0 10.0 0.00 0.00 0.00 61 1015.7
20260831115104 78 188 7.0 9.0 0.00 0.00 0.00 61 1015.5
20260831114604 78 182 6.0 8.0 0.00 0.00 0.00 60 1015.4
20260831114104 78 185 6.0 9.0 0.00 0.00 0.00 60 1015.4
20260831113604 79 173 6.0 10.0 0.00 0.00 0.00 59 1015.4
20260831113104 79 183 6.0 10.0 0.00 0.00 0.00 59 1015.5
20260831112604 79 186 7.0 10.0 0.00 0.00 0.00 59 1015.4
20260831112104 79 185 7.0 12.0 0.00 0.00 0.00 59 1015.3
20260831111604 80 189 7.0 12.0 0.00 0.00 0.00 58 1015.2
20260831111105 80 185 7.0 12.0 0.00 0.00 0.00 58 1015.2
20260831110604 80 183 7.0 13.0 0.00 0.00 0.00 58 1015.1
20260831105604 80 183 9.0 13.0 0.00 0.00 0.00 58 1014.9
20260831105104 80 186 8.0 12.0 0.00 0.00 0.00 58 1014.9
20260831104604 80 184 7.0 12.0 0.00 0.00 0.00 58 1014.8
20260831104104 80 188 8.0 14.0 0.00 0.00 0.00 57 1014.8
20260831103603 80 181 8.0 14.0 0.00 0.00 0.00 57 1014.8
20260831102104 80 180 7.0 10.0 0.00 0.00 0.00 57 1014.9
20260831101604 81 188 7.0 12.0 0.00 0.00 0.00 56 1014.8
20260831101104 81 194 8.0 12.0 0.00 0.00 0.00 56 1014.7
20260831100604 81 191 7.0 12.0 0.00 0.00 0.00 56 1014.7
20260831095604 81 188 7.0 12.0 0.00 0.00 0.00 56 1014.7
20260831095104 81 187 7.0 12.0 0.00 0.00 0.00 55 1014.7
20260831094604 81 190 7.0 12.0 0.00 0.00 0.00 55 1014.7
20260831094104 82 184 7.0 12.0 0.00 0.00 0.00 55 1014.7
20260831093104 82 190 8.0 14.0 0.00 0.00 0.00 55 1014.6
20260831092604 82 190 7.0 14.0 0.00 0.00 0.00 55 1014.5
20260831092104 82 190 8.0 12.0 0.00 0.00 0.00 55 1014.4
20260831091604 82 188 8.0 12.0 0.00 0.00 0.00 55 1014.5
20260831091103 82 185 7.0 12.0 0.00 0.00 0.00 55 1014.4
20260831090603 83 186 9.0 12.0 0.00 0.00 0.00 55 1014.3
20260831085604 83 185 9.0 12.0 0.00 0.00 0.00 54 1014.2
20260831085104 83 190 8.0 12.0 0.00 0.00 0.00 54 1014.3
20260831084606 83 191 7.0 13.0 0.00 0.00 0.00 54 1014.3
20260831084104 84 188 9.0 14.0 0.00 0.00 0.00 53 1014.3
20260831083604 84 181 9.0 14.0 0.00 0.00 0.00 53 1014.2
20260831083104 84 180 8.0 12.0 0.00 0.00 0.00 53 1014.2
20260831082605 84 190 8.0 13.0 0.00 0.00 0.00 53 1014.2
20260831081604 84 184 7.0 12.0 0.00 0.00 0.00 53 1014.2
20260831081104 84 176 9.0 12.0 0.00 0.00 0.00 53 1014.2
20260831080604 84 187 8.0 14.0 0.00 0.00 0.00 53 1014.2
20260831080104 84 180 9.0 16.0 0.00 0.00 0.00 52 1014.2
20260831075604 85 168 9.0 16.0 0.00 0.00 0.00 52 1014.2
20260831075104 84 185 8.0 15.0 0.00 0.00 0.00 52 1014.2
20260831074604 85 178 7.0 15.0 0.00 0.00 0.00 52 1014.2
20260831073604 85 174 8.0 16.0 0.00 0.00 0.00 51 1014.1
20260831071603 85 175 9.0 16.0 0.00 0.00 0.00 51 1014.2
20260831071104 85 172 8.0 16.0 0.00 0.00 0.00 50 1014.1
20260831070604 85 166 9.0 17.0 0.00 0.00 0.00 50 1014.2
20260831070104 85 171 9.0 20.0 0.00 0.00 0.00 50 1014.2
20260831065104 86 178 12.0 20.0 0.00 0.00 0.00 49 1014.1
20260831063103 86 167 10.0 15.0 0.00 0.00 0.00 49 1014.1
20260831062604 86 173 9.0 16.0 0.00 0.00 0.00 49 1014.1
20260831061604 86 172 10.0 14.0 0.00 0.00 0.00 49 1014.1
20260831061104 86 173 10.0 17.0 0.00 0.00 0.00 49 1014.1
20260831060604 86 176 8.0 17.0 0.00 0.00 0.00 49 1014.1
20260831060104 86 163 7.0 16.0 0.00 0.00 0.00 49 1014.1
20260831055104 86 168 10.0 16.0 0.00 0.00 0.00 48 1014.0
20260831054604 87 165 11.0 16.0 0.00 0.00 0.00 48 1013.9
20260831054104 87 167 10.0 18.0 0.00 0.00 0.00 48 1013.9
20260831053604 87 172 12.0 18.0 0.00 0.00 0.00 47 1013.9
20260831053104 87 157 10.0 18.0 0.00 0.00 0.00 47 1013.8
20260831052104 87 181 10.0 18.0 0.00 0.00 0.00 47 1013.8
20260831051104 88 173 10.0 16.0 0.00 0.00 0.00 46 1013.7
20260831050604 88 175 11.0 17.0 0.00 0.00 0.00 46 1013.7
20260831050104 88 173 11.0 20.0 0.00 0.00 0.00 46 1013.7
20260831045104 88 154 12.0 20.0 0.00 0.00 0.00 46 1013.6
20260831044104 89 165 11.0 21.0 0.00 0.00 0.00 45 1013.6
20260831043604 89 165 10.0 21.0 0.00 0.00 0.00 46 1013.6
20260831043104 89 167 11.0 18.0 0.00 0.00 0.00 45 1013.5
20260831042604 89 176 10.0 18.0 0.00 0.00 0.00 45 1013.6
20260831042104 89 171 10.0 15.0 0.00 0.00 0.00 45 1013.6
20260831041603 89 168 9.0 14.0 0.00 0.00 0.00 45 1013.6
20260831041104 89 159 10.0 14.0 0.00 0.00 0.00 45 1013.6
20260831040603 89 163 9.0 14.0 0.00 0.00 0.00 45 1013.5
20260831040104 89 167 10.0 14.0 0.00 0.00 0.00 45 1013.5
20260831035604 89 163 10.0 15.0 0.00 0.00 0.00 45 1013.5
20260831035103 90 165 9.0 15.0 0.00 0.00 0.00 45 1013.4
20260831034604 90 164 9.0 13.0 0.00 0.00 0.00 45 1013.4
20260831034104 90 166 8.0 15.0 0.00 0.00 0.00 44 1013.4
20260831033104 90 174 9.0 16.0 0.00 0.00 0.00 44 1013.4
20260831032604 91 154 10.0 16.0 0.00 0.00 0.00 44 1013.5